| time (UTC) | temp F | wind direction | speed knots | gust knots | rain 1hr in | rain 24hr in | rain mn in | humidity % | barometer mb |
| 20260506124600 | 54 | 12 | 3.5 | 9.6 | 0.00 | 0.00 | 0.00 | 54 | 1011.3 |
| 20260506123151 | 54 | 5 | 1.7 | 7.8 | 0.00 | 0.00 | 0.00 | 58 | 1011.2 |
| 20260506121611 | 54 | 5 | 2.6 | 8.7 | 0.00 | 0.00 | 0.00 | 55 | 1011.3 |
| 20260506120153 | 55 | 39 | 1.7 | 8.7 | 0.00 | 0.00 | 0.00 | 55 | 1011.3 |
| 20260506114614 | 54 | 350 | 3.5 | 9.6 | 0.00 | 0.00 | 0.00 | 58 | 1011.1 |
| 20260506113044 | 54 | 17 | 2.6 | 8.7 | 0.00 | 0.00 | 0.00 | 58 | 1011.2 |
| 20260506111541 | 54 | 29 | 4.3 | 8.7 | 0.00 | 0.00 | 0.00 | 58 | 1011.2 |
| 20260506110100 | 54 | 42 | 3.5 | 7.8 | 0.00 | 0.00 | 0.00 | 58 | 1011.3 |
| 20260506104609 | 55 | 31 | 2.6 | 7.0 | 0.00 | 0.00 | 0.00 | 57 | 1011.2 |
| 20260506101610 | 55 | 11 | 1.7 | 7.0 | 0.00 | 0.00 | 0.00 | 60 | 1011.4 |
| 20260506100041 | 54 | 28 | 1.7 | 7.0 | 0.00 | 0.00 | 0.00 | 59 | 1011.5 |
| 20260506094627 | 53 | 15 | 1.7 | 5.2 | 0.00 | 0.00 | 0.00 | 61 | 1011.5 |
| 20260506093042 | 53 | 20 | 0.9 | 7.0 | 0.00 | 0.00 | 0.00 | 61 | 1011.5 |
| 20260506091542 | 53 | 11 | 2.6 | 7.8 | 0.00 | 0.00 | 0.00 | 59 | 1011.5 |
| 20260506090058 | 53 | 19 | 2.6 | 5.2 | 0.00 | 0.00 | 0.00 | 59 | 1011.5 |
| 20260506084604 | 52 | 5 | 0.9 | 3.5 | 0.00 | 0.00 | 0.00 | 58 | 1011.2 |
| 20260506083145 | 52 | 30 | 1.7 | 5.2 | 0.00 | 0.00 | 0.00 | 57 | 1011.3 |
| 20260506081611 | 52 | 5 | 0.9 | 3.5 | 0.00 | 0.00 | 0.00 | 58 | 1011.3 |
| 20260506073103 | 51 | 14 | 0.9 | 3.5 | 0.00 | 0.00 | 0.00 | 59 | 1011.1 |
| 20260506071559 | 51 | 5 | 0.0 | 3.5 | 0.00 | 0.00 | 0.00 | 59 | 1011.2 |
| 20260506070107 | 50 | 360 | 0.9 | 3.5 | 0.00 | 0.00 | 0.00 | 60 | 1011.1 |
| 20260506061609 | 50 | 355 | 0.9 | 3.5 | 0.00 | 0.00 | 0.00 | 57 | 1011.2 |
| 20260506060152 | 50 | 10 | 0.9 | 3.5 | 0.00 | 0.00 | 0.00 | 56 | 1011.2 |
| 20260506050126 | 48 | 355 | 0.0 | 2.6 | 0.00 | 0.00 | 0.00 | 54 | 1011.3 |
| 20260506044619 | 47 | 355 | 0.0 | 2.6 | 0.00 | 0.00 | 0.00 | 52 | 1011.4 |
| 20260506043034 | 47 | 5 | 0.0 | 2.6 | 0.00 | 0.00 | 0.00 | 50 | 1011.4 |
| 20260506041557 | 47 | 347 | 0.0 | 2.6 | 0.00 | 0.00 | 0.00 | 50 | 1011.4 |
| 20260506040149 | 47 | 325 | 0.0 | 0.9 | 0.00 | 0.00 | 0.00 | 54 | 1011.3 |
| 20260506034608 | 47 | 360 | 0.0 | 4.3 | 0.00 | 0.00 | 0.00 | 54 | 1011.3 |
| 20260506033006 | 47 | 355 | 0.9 | 2.6 | 0.00 | 0.00 | 0.00 | 57 | 1011.4 |
| 20260506031626 | 47 | 348 | 0.0 | 2.6 | 0.00 | 0.00 | 0.00 | 57 | 1011.4 |
| 20260506030019 | 47 | 360 | 0.0 | 3.5 | 0.00 | 0.00 | 0.00 | 57 | 1011.7 |
| 20260506024554 | 47 | 355 | 0.9 | 5.2 | 0.00 | 0.00 | 0.00 | 58 | 1011.6 |
| 20260506023056 | 47 | 12 | 0.9 | 4.3 | 0.00 | 0.00 | 0.00 | 60 | 1011.6 |
| 20260506021602 | 47 | 5 | 0.0 | 2.6 | 0.00 | 0.00 | 0.00 | 63 | 1011.7 |
| 20260506020110 | 47 | 360 | 0.9 | 3.5 | 0.00 | 0.00 | 0.00 | 64 | 1011.9 |
| 20260506014557 | 47 | 5 | 0.0 | 3.5 | 0.00 | 0.00 | 0.00 | 65 | 1011.8 |
| 20260506013138 | 47 | 5 | 0.0 | 1.7 | 0.00 | 0.00 | 0.00 | 65 | 1011.8 |
| 20260506011608 | 47 | 347 | 0.0 | 4.3 | 0.00 | 0.00 | 0.00 | 66 | 1011.7 |
| 20260506010152 | 47 | 355 | 0.9 | 5.2 | 0.00 | 0.00 | 0.00 | 67 | 1011.7 |
| 20260506004619 | 47 | 355 | 1.7 | 4.3 | 0.00 | 0.00 | 0.00 | 67 | 1011.6 |
| 20260506003010 | 47 | 28 | 0.0 | 4.3 | 0.00 | 0.00 | 0.00 | 70 | 1011.6 |
| 20260506001546 | 47 | 344 | 0.9 | 5.2 | 0.00 | 0.00 | 0.00 | 71 | 1011.7 |
| 20260506000050 | 48 | 360 | 1.7 | 4.3 | 0.00 | 0.00 | 0.00 | 72 | 1011.5 |
| 20260505234544 | 48 | 15 | 0.9 | 4.3 | 0.00 | 0.00 | 0.00 | 71 | 1011.4 |
| 20260505233103 | 47 | 22 | 1.7 | 3.5 | 0.00 | 0.00 | 0.00 | 70 | 1011.5 |
| 20260505231605 | 47 | 355 | 0.9 | 4.3 | 0.00 | 0.00 | 0.00 | 71 | 1011.6 |
| 20260505230053 | 46 | 355 | 0.9 | 4.3 | 0.00 | 0.00 | 0.00 | 71 | 1011.7 |
| 20260505224624 | 44 | 5 | 0.0 | 1.7 | 0.00 | 0.00 | 0.00 | 72 | 1011.8 |
| 20260505223200 | 44 | 340 | 0.0 | 1.7 | 0.00 | 0.00 | 0.00 | 73 | 1011.8 |
| 20260505221615 | 43 | 360 | 0.0 | 2.6 | 0.00 | 0.00 | 0.00 | 76 | 1011.8 |
| 20260505220013 | 43 | 9 | 0.0 | 1.7 | 0.00 | 0.00 | 0.00 | 76 | 1011.9 |
| 20260505214603 | 42 | 9 | 0.0 | 1.7 | 0.00 | 0.00 | 0.00 | 76 | 1011.8 |
| 20260505213108 | 42 | 13 | 0.0 | 1.7 | 0.00 | 0.00 | 0.00 | 75 | 1012.0 |
| 20260505211609 | 42 | 360 | 0.0 | 1.7 | 0.00 | 0.00 | 0.00 | 75 | 1012.0 |
| 20260505210150 | 42 | 360 | 0.0 | 0.9 | 0.00 | 0.00 | 0.00 | 75 | 1012.1 |
| 20260505204611 | 43 | 360 | 0.0 | 0.9 | 0.00 | 0.00 | 0.00 | 75 | 1012.0 |
| 20260505203148 | 43 | 360 | 0.0 | 0.0 | 0.00 | 0.00 | 0.00 | 73 | 1012.0 |
| 20260505201602 | 44 | 360 | 0.0 | 0.9 | 0.00 | 0.00 | 0.00 | 72 | 1012.1 |
| 20260505200140 | 45 | 360 | 0.0 | 0.0 | 0.00 | 0.00 | 0.00 | 70 | 1012.1 |
| 20260505194605 | 45 | 360 | 0.0 | 0.9 | 0.00 | 0.00 | 0.00 | 69 | 1012.2 |
| 20260505193154 | 46 | 5 | 0.0 | 1.7 | 0.00 | 0.00 | 0.00 | 69 | 1012.2 |
| 20260505191621 | 46 | 355 | 0.0 | 0.9 | 0.00 | 0.00 | 0.00 | 67 | 1012.1 |
| 20260505190153 | 47 | 344 | 0.0 | 0.9 | 0.00 | 0.00 | 0.00 | 66 | 1011.9 |
| 20260505184604 | 48 | 344 | 0.0 | 0.0 | 0.00 | 0.00 | 0.00 | 64 | 1012.0 |
| 20260505183156 | 48 | 344 | 0.0 | 0.9 | 0.00 | 0.00 | 0.00 | 62 | 1012.0 |
| 20260505181505 | 49 | 338 | 0.0 | 1.7 | 0.00 | 0.00 | 0.00 | 61 | 1011.7 |
| 20260505180105 | 49 | 348 | 0.0 | 0.9 | 0.00 | 0.00 | 0.00 | 59 | 1011.6 |
| 20260505174606 | 50 | 348 | 0.0 | 1.7 | 0.00 | 0.00 | 0.00 | 57 | 1011.8 |
| 20260505173154 | 50 | 355 | 0.0 | 1.7 | 0.00 | 0.00 | 0.00 | 60 | 1011.8 |
| 20260505171620 | 50 | 351 | 0.9 | 3.5 | 0.00 | 0.00 | 0.00 | 57 | 1011.8 |
| 20260505170044 | 50 | 5 | 0.9 | 2.6 | 0.00 | 0.00 | 0.00 | 56 | 1011.9 |
| 20260505164541 | 51 | 5 | 0.0 | 3.5 | 0.00 | 0.00 | 0.00 | 56 | 1011.8 |
| 20260505163058 | 51 | 10 | 0.0 | 3.5 | 0.00 | 0.00 | 0.00 | 55 | 1011.8 |
| 20260505161605 | 51 | 72 | 0.0 | 4.3 | 0.00 | 0.00 | 0.00 | 58 | 1011.9 |
| 20260505160154 | 51 | 28 | 0.9 | 2.6 | 0.00 | 0.00 | 0.00 | 62 | 1012.0 |
| 20260505153155 | 51 | 5 | 0.9 | 4.3 | 0.00 | 0.00 | 0.00 | 58 | 1011.9 |
| 20260505151619 | 51 | 360 | 0.9 | 3.5 | 0.00 | 0.00 | 0.00 | 55 | 1011.9 |
| 20260505150152 | 52 | 67 | 0.9 | 3.5 | 0.00 | 0.00 | 0.00 | 57 | 1011.9 |
| 20260505140115 | 53 | 24 | 0.9 | 4.3 | 0.00 | 0.00 | 0.00 | 62 | 1012.2 |
| 20260505130148 | 53 | 5 | 0.9 | 4.3 | 0.00 | 0.00 | 0.00 | 61 | 1012.1 |